Home   Weather   Hefei   Past weeks

Flag for China Past Weather in Hefei, Anhui, China — Yesterday and Last 2 Weeks

Now
70 °F

Sunny.


Feels Like: 70 °F
Forecast: 50 / 80 °F
Wind: 6 mph from Northwest

Location: Hefei Airport

Current Time: Apr 27, 2017 at 7:07:50 pm

Latest Report: Apr 27, 2017 at 6:00 pm


Visibility: 10 mi

Pressure: 30.04 "Hg

Humidity: 31%

Dew Point: 37 °F

Location of HefeiLocation

Past Weather in Hefei — Graph

°F

Hefei Temperature Yesterday

Maximum temperature yesterday: 70 °F (at 3:00 pm)
Minimum temperature yesterday: 57 °F (at 4:00 am)
Average temperature yesterday: 62 °F

High & Low Weather Summary for the Past Weeks

 TemperatureHumidityPressure
High86 °F (Apr 15, 2:00 pm)100% (Apr 17, 2:00 am)30.15 "Hg (Apr 17, 2:00 am)
Low50 °F (Apr 13, 5:00 am)25% (Apr 24, 1:00 pm)29.59 "Hg (Apr 18, 3:00 am)
Average67 °F63%29.89 "Hg
* Reported Apr 12 6:00 pm — Apr 27 6:00 pm, Hefei, Weather by CustomWeather, © 2017

Note: Actual official high and low records may vary slightly from our data, if they occured in-between our weather recording intervals... More about our weather records

Advertising

Hefei Weather History for the Previous 24 Hours

Scroll right to see more
 ConditionsComfort  
Time TempWeatherWind HumidityBarometerVisibility
6:00 pm
Thu, Apr 27
70 °FSunny.6 mph31%30.04 "Hg10 mi
5:00 pm72 °FSunny.10 mph27%30.04 "Hg10 mi
4:00 pm73 °FPassing clouds.8 mph27%30.04 "HgN/A
3:00 pm73 °FPassing clouds.10 mph29%30.07 "HgN/A
2:00 pm72 °FPassing clouds.8 mph27%30.09 "HgN/A
1:00 pm73 °FPassing clouds.8 mph27%30.12 "HgN/A
12:00 pm72 °FPassing clouds.8 mph38%30.15 "HgN/A
11:00 am68 °FSunny.3 mph43%30.15 "Hg10 mi
10:00 am70 °FSunny.1 mph43%30.15 "Hg10 mi
9:00 am66 °FPassing clouds.3 mph52%30.15 "HgN/A
8:00 am63 °FPassing clouds.3 mph68%30.15 "HgN/A
7:00 am59 °FClear.1 mph82%30.15 "Hg4 mi
6:00 am55 °FClear.1 mph94%30.12 "Hg4 mi
5:00 am55 °FClear.3 mph94%30.12 "Hg4 mi
4:00 am57 °FClear.1 mph88%30.12 "Hg5 mi
3:00 am57 °FClear.1 mph88%30.12 "Hg5 mi
2:00 am57 °FClear.1 mph88%30.12 "Hg10 mi
1:00 am59 °FClear.3 mph77%30.15 "Hg10 mi
12:00 am59 °FClear.3 mph77%30.15 "Hg10 mi
11:00 pm
Wed, Apr 26
61 °FClear.3 mph77%30.15 "Hg5 mi
10:00 pm61 °FClear.3 mph77%30.15 "Hg5 mi
9:00 pm63 °FClear.1 mph73%30.15 "Hg10 mi
8:00 pm63 °FClear.3 mph73%30.12 "Hg10 mi
7:00 pm64 °FClear.6 mph64%30.09 "Hg10 mi
Weather by CustomWeather, © 2017

See weather overviewHow to use our weather pages